Zurück zum Katalog

COSMOS 2484

AktivMilitärPO
NORAD 39059·PAYLOAD·🇷🇺 Russia

Gestartet Jan 15, 2013 von Plesetsk Cosmodrome

Loading…

Nächste Überflüge (nächste 24 Stunden)

TLE

AktuellSource: Space-Track

Epoche: Sep 14, 2026, 13:47 UTC

1 39059U 13001C   26257.57438759  .00000076  00000-0  47833-3 0  9992
2 39059  82.5068 166.3336 0025258 196.9089 163.1152 12.42942401619665

Verfolge COSMOS 2484 in Echtzeit mit AllMySat

Download on the App Store